• In Russia
  • List of Countries
  • For 7 days
  • Water Temperature
  • Satellite Maps
  • Weather Map
  • Weather Widgets
  • user-avatar
    Login

    Hourly Weather Baraki Barak

    Today, 25 April, Thursday

    Time Temperature Precipitation Wind Pressure Humidity
    00:00 +13°C° 0 mm 3 mps 598 mmHg 54%
    01:00 +14°C° 0 mm 2 mps 597 mmHg 57%
    02:00 +13°C° 0 mm 2 mps 597 mmHg 60%
    03:00 +12°C° 0 mm 2 mps 597 mmHg 61%
    04:00 +12°C° 0 mm 2 mps 597 mmHg 61%
    05:00 +12°C° 0 mm 2 mps 597 mmHg 63%
    06:00 +13°C° 0 mm 2 mps 598 mmHg 56%
    07:00 +13°C° 0 mm 2 mps 598 mmHg 49%
    08:00 +14°C° 0 mm 2 mps 599 mmHg 42%
    09:00 +15°C° 0 mm 4 mps 599 mmHg 35%
    10:00 +16°C° 0 mm 5 mps 600 mmHg 27%
    11:00 +18°C° 0 mm 8 mps 600 mmHg 20%
    12:00 +19°C° 0 mm 9 mps 601 mmHg 19%
    13:00 +21°C° 0 mm 11 mps 601 mmHg 18%
    14:00 +22°C° 0 mm 12 mps 601 mmHg 17%
    15:00 +21°C° 0 mm 12 mps 600 mmHg 17%
    16:00 +21°C° 0 mm 12 mps 600 mmHg 18%
    17:00 +21°C° 0 mm 12 mps 600 mmHg 18%
    18:00 +19°C° 0 mm 9 mps 600 mmHg 21%
    19:00 +17°C° 0 mm 7 mps 599 mmHg 24%
    20:00 +16°C° 0 mm 5 mps 599 mmHg 27%
    21:00 +15°C° 0 mm 4 mps 599 mmHg 30%
    22:00 +14°C° 0 mm 3 mps 599 mmHg 33%
    23:00 +13°C° 0 mm 3 mps 598 mmHg 37%

    Tomorrow, 26 April, Friday

    Time Temperature Precipitation Wind Pressure Humidity
    00:00 +13°C° 0 mm 2 mps 598 mmHg 38%
    01:00 +13°C° 0 mm 2 mps 598 mmHg 40%
    02:00 +12°C° 0 mm 2 mps 597 mmHg 42%
    03:00 +12°C° 0 mm 2 mps 597 mmHg 43%
    04:00 +10°C° 0 mm 2 mps 597 mmHg 44%
    05:00 +11°C° 0 mm 1 mps 597 mmHg 45%
    06:00 +11°C° 0 mm 1 mps 597 mmHg 41%
    07:00 +12°C° 0 mm 1 mps 598 mmHg 36%
    08:00 +13°C° 0 mm 1 mps 598 mmHg 32%
    09:00 +14°C° 0 mm 1 mps 599 mmHg 29%
    10:00 +15°C° 0 mm 1 mps 599 mmHg 26%
    11:00 +18°C° 0 mm 1 mps 600 mmHg 23%
    12:00 +18°C° 0 mm 2 mps 600 mmHg 21%
    13:00 +19°C° 0 mm 3 mps 600 mmHg 19%
    14:00 +20°C° 0 mm 3 mps 600 mmHg 17%
    15:00 +20°C° 0 mm 4 mps 600 mmHg 17%
    16:00 +20°C° 0 mm 5 mps 600 mmHg 17%
    17:00 +21°C° 0 mm 6 mps 600 mmHg 17%
    18:00 +20°C° 0 mm 5 mps 600 mmHg 20%
    19:00 +18°C° 0 mm 4 mps 600 mmHg 23%
    20:00 +17°C° 0 mm 3 mps 600 mmHg 26%
    21:00 +17°C° 0 mm 2 mps 600 mmHg 28%
    22:00 +16°C° 0 mm 2 mps 600 mmHg 31%
    23:00 +15°C° 0 mm 2 mps 600 mmHg 33%

    Day after tomorrow, 27 April, Saturday

    Time Temperature Precipitation Wind Pressure Humidity
    00:00 +15°C° 0 mm 2 mps 599 mmHg 35%
    01:00 +14°C° 0 mm 2 mps 599 mmHg 36%
    02:00 +14°C° 0 mm 1 mps 599 mmHg 37%
    03:00 +13°C° 0 mm 1 mps 599 mmHg 39%
    04:00 +12°C° 0 mm 1 mps 598 mmHg 40%
    05:00 +11°C° 0 mm 1 mps 598 mmHg 41%
    06:00 +12°C° 0 mm 1 mps 598 mmHg 37%
    07:00 +13°C° 0 mm 1 mps 599 mmHg 32%
    08:00 +14°C° 0 mm 1 mps 600 mmHg 28%
    09:00 +15°C° 0 mm 1 mps 600 mmHg 26%
    10:00 +16°C° 0 mm 1 mps 600 mmHg 24%
    11:00 +18°C° 0 mm 1 mps 601 mmHg 22%
    12:00 +18°C° 0 mm 2 mps 601 mmHg 21%
    13:00 +19°C° 0 mm 3 mps 601 mmHg 20%
    14:00 +20°C° 0 mm 3 mps 600 mmHg 19%
    15:00 +20°C° 0 mm 4 mps 600 mmHg 18%
    16:00 +21°C° 0 mm 4 mps 600 mmHg 18%
    17:00 +21°C° 0 mm 5 mps 600 mmHg 18%
    18:00 +20°C° 0 mm 4 mps 600 mmHg 20%
    19:00 +19°C° 0 mm 3 mps 600 mmHg 23%
    20:00 +18°C° 0 mm 3 mps 600 mmHg 26%
    21:00 +17°C° 0 mm 2 mps 600 mmHg 29%
    22:00 +16°C° 0 mm 2 mps 599 mmHg 32%
    23:00 +15°C° 0 mm 2 mps 599 mmHg 35%

    28 April, Sunday

    Time Temperature Precipitation Wind Pressure Humidity
    00:00 +15°C° 0 mm 2 mps 599 mmHg 37%
    01:00 +14°C° 0 mm 1 mps 598 mmHg 38%
    02:00 +13°C° 0 mm 1 mps 598 mmHg 40%
    03:00 +13°C° 0 mm 1 mps 598 mmHg 41%
    04:00 +12°C° 0 mm 1 mps 597 mmHg 43%
    05:00 +12°C° 0 mm 1 mps 597 mmHg 44%
    06:00 +13°C° 0 mm 1 mps 598 mmHg 39%
    07:00 +13°C° 0 mm 0 mps 598 mmHg 34%
    08:00 +14°C° 0 mm 0 mps 599 mmHg 29%
    09:00 +16°C° 0 mm 1 mps 599 mmHg 27%
    10:00 +18°C° 0 mm 1 mps 600 mmHg 24%
    11:00 +19°C° 0 mm 1 mps 600 mmHg 22%
    12:00 +19°C° 0 mm 2 mps 600 mmHg 20%
    13:00 +20°C° 0 mm 2 mps 600 mmHg 19%
    14:00 +21°C° 0 mm 3 mps 600 mmHg 18%
    15:00 +21°C° 0 mm 3 mps 599 mmHg 18%
    16:00 +21°C° 0 mm 4 mps 599 mmHg 18%
    17:00 +21°C° 0 mm 4 mps 599 mmHg 17%
    18:00 +20°C° 0 mm 3 mps 599 mmHg 21%
    19:00 +19°C° 0 mm 2 mps 599 mmHg 24%
    20:00 +19°C° 0 mm 1 mps 599 mmHg 27%
    21:00 +19°C° 0 mm 1 mps 599 mmHg 29%
    22:00 +18°C° 0 mm 1 mps 599 mmHg 31%
    23:00 +16°C° 0 mm 1 mps 599 mmHg 32%

    29 April, Monday

    Time Temperature Precipitation Wind Pressure Humidity
    00:00 +16°C° 0 mm 1 mps 598 mmHg 34%
    01:00 +15°C° 0 mm 1 mps 598 mmHg 37%
    02:00 +14°C° 0 mm 1 mps 597 mmHg 39%
    03:00 +14°C° 0 mm 1 mps 597 mmHg 40%
    04:00 +13°C° 0 mm 1 mps 597 mmHg 41%
    05:00 +12°C° 0 mm 1 mps 596 mmHg 43%
    06:00 +13°C° 0 mm 1 mps 597 mmHg 38%
    07:00 +14°C° 0 mm 1 mps 598 mmHg 33%
    08:00 +15°C° 0 mm 1 mps 598 mmHg 29%
    09:00 +18°C° 0 mm 1 mps 599 mmHg 25%
    10:00 +19°C° 0 mm 1 mps 599 mmHg 21%
    11:00 +20°C° 0 mm 1 mps 599 mmHg 18%
    12:00 +20°C° 0 mm 2 mps 599 mmHg 16%
    13:00 +22°C° 0 mm 3 mps 599 mmHg 14%
    14:00 +23°C° 0 mm 4 mps 599 mmHg 13%
    15:00 +23°C° 0 mm 4 mps 599 mmHg 13%
    16:00 +23°C° 0 mm 5 mps 598 mmHg 13%
    17:00 +23°C° 0 mm 6 mps 598 mmHg 14%
    18:00 +22°C° 0 mm 5 mps 598 mmHg 17%
    19:00 +21°C° 0 mm 4 mps 598 mmHg 20%
    20:00 +20°C° 0 mm 2 mps 598 mmHg 23%
    21:00 +19°C° 0 mm 3 mps 598 mmHg 25%
    22:00 +18°C° 0 mm 3 mps 598 mmHg 28%
    23:00 +17°C° 0 mm 3 mps 598 mmHg 30%

    30 April, Tuesday

    Time Temperature Precipitation Wind Pressure Humidity
    00:00 +16°C° 0 mm 2 mps 597 mmHg 33%
    01:00 +15°C° 0 mm 2 mps 596 mmHg 36%
    02:00 +14°C° 0 mm 2 mps 596 mmHg 39%
    03:00 +14°C° 0.2 mm 2 mps 595 mmHg 42%
    04:00 +13°C° 0.2 mm 2 mps 595 mmHg 44%
    05:00 +12°C° 0.2 mm 3 mps 595 mmHg 47%
    06:00 +12°C° 0.2 mm 2 mps 595 mmHg 48%
    07:00 +12°C° 0.2 mm 2 mps 596 mmHg 49%
    08:00 +12°C° 0.2 mm 2 mps 596 mmHg 50%
    09:00 +14°C° 0 mm 1 mps 597 mmHg 46%
    10:00 +15°C° 0 mm 1 mps 597 mmHg 42%
    11:00 +18°C° 0 mm 1 mps 598 mmHg 38%
    12:00 +18°C° 0 mm 2 mps 598 mmHg 35%
    13:00 +19°C° 0 mm 2 mps 598 mmHg 31%
    14:00 +20°C° 0 mm 3 mps 598 mmHg 27%
    15:00 +20°C° 0.1 mm 3 mps 597 mmHg 27%
    16:00 +20°C° 0.1 mm 3 mps 597 mmHg 27%
    17:00 +20°C° 0.1 mm 4 mps 597 mmHg 28%
    18:00 +19°C° 0.4 mm 4 mps 596 mmHg 35%
    19:00 +17°C° 0.4 mm 4 mps 596 mmHg 43%
    20:00 +14°C° 0.4 mm 4 mps 596 mmHg 50%
    21:00 +14°C° 0.4 mm 4 mps 596 mmHg 50%
    22:00 +13°C° 0.4 mm 3 mps 596 mmHg 50%
    23:00 +14°C° 0.4 mm 2 mps 596 mmHg 50%
    Show more